TimePST,TemperatureF,Dew PointF,Humidity,Sea Level PressureIn,VisibilityMPH,Wind Direction,Wind SpeedMPH,Gust SpeedMPH,PrecipitationIn,Events,Conditions,WindDirDegrees,DateUTC
12:52 AM,60.1,43.0,53,29.88,10.0,NW,5.8,-,N/A,,Clear,320,2013-11-05 08:52:00
1:52 AM,59.0,41.0,51,29.91,10.0,NNE,4.6,-,N/A,,Clear,30,2013-11-05 09:52:00
2:52 AM,64.9,28.0,25,29.92,10.0,NW,12.7,-,N/A,,Clear,310,2013-11-05 10:52:00
3:52 AM,63.0,25.0,24,29.96,10.0,NW,6.9,-,N/A,,Clear,310,2013-11-05 11:52:00
4:52 AM,63.0,21.9,21,29.99,10.0,NW,8.1,-,N/A,,Clear,310,2013-11-05 12:52:00
5:52 AM,59.0,24.1,26,30.01,10.0,NW,8.1,-,N/A,,Clear,310,2013-11-05 13:52:00
6:52 AM,62.1,23.0,22,30.05,10.0,NW,9.2,-,N/A,,Clear,320,2013-11-05 14:52:00
7:52 AM,66.0,24.1,20,30.09,10.0,NW,9.2,-,N/A,,Clear,320,2013-11-05 15:52:00
8:52 AM,70.0,18.0,14,30.11,10.0,NW,13.8,-,N/A,,Clear,310,2013-11-05 16:52:00
9:52 AM,72.0,15.1,11,30.12,10.0,NW,10.4,18.4,N/A,,Clear,320,2013-11-05 17:52:00
10:52 AM,73.9,12.9,10,30.11,10.0,NNW,10.4,-,N/A,,Clear,340,2013-11-05 18:52:00
11:52 AM,75.0,12.0,9,30.09,10.0,NNW,11.5,17.3,N/A,,Clear,330,2013-11-05 19:52:00
12:52 PM,75.0,9.0,8,30.08,10.0,NNW,12.7,-,N/A,,Clear,330,2013-11-05 20:52:00
1:52 PM,75.0,8.1,8,30.07,10.0,WNW,6.9,-,N/A,,Clear,290,2013-11-05 21:52:00
2:52 PM,75.9,8.1,7,30.08,10.0,NNW,8.1,-,N/A,,Clear,340,2013-11-05 22:52:00
3:52 PM,73.9,10.0,9,30.09,10.0,NNW,9.2,-,N/A,,Clear,340,2013-11-05 23:52:00
4:52 PM,66.9,15.1,14,30.09,10.0,WNW,6.9,-,N/A,,Clear,290,2013-11-06 00:52:00
5:52 PM,62.1,14.0,15,30.11,10.0,WNW,8.1,-,N/A,,Clear,300,2013-11-06 01:52:00
6:52 PM,57.0,16.0,20,30.13,10.0,SW,4.6,-,N/A,,Clear,230,2013-11-06 02:52:00
7:52 PM,61.0,14.0,16,30.14,10.0,WNW,9.2,-,N/A,,Clear,290,2013-11-06 03:52:00
8:52 PM,57.0,16.0,20,30.15,10.0,North,5.8,-,N/A,,Clear,10,2013-11-06 04:52:00
9:52 PM,51.1,19.9,29,30.17,10.0,North,3.5,-,N/A,,Clear,350,2013-11-06 05:52:00
10:52 PM,53.1,18.0,25,30.17,10.0,North,8.1,-,N/A,,Clear,360,2013-11-06 06:52:00
11:52 PM,55.9,15.1,20,30.17,10.0,North,5.8,-,N/A,,Clear,10,2013-11-06 07:52:00